TimeMST,TemperatureF,Dew PointF,Humidity,Sea Level PressureIn,VisibilityMPH,Wind Direction,Wind SpeedMPH,Gust SpeedMPH,PrecipitationIn,Events,Conditions,WindDirDegrees,DateUTC
12:05 AM,-18.4,-9999,N/A,29.79,10.0,Calm,Calm,-,N/A,,Clear,0,2012-12-19 07:05:00
12:25 AM,-18.4,-9999,N/A,29.80,10.0,Calm,Calm,-,N/A,,Clear,0,2012-12-19 07:25:00
12:45 AM,-20.2,-9999,N/A,29.80,10.0,SSW,3.5,-,N/A,,Clear,200,2012-12-19 07:45:00
1:05 AM,-22.0,-9999,N/A,29.80,10.0,Calm,Calm,-,N/A,,Clear,0,2012-12-19 08:05:00
1:25 AM,-22.0,-9999,N/A,29.81,10.0,Calm,Calm,-,N/A,,Clear,0,2012-12-19 08:25:00
1:45 AM,-22.0,-9999,N/A,29.81,10.0,Calm,Calm,-,N/A,,Clear,0,2012-12-19 08:45:00
2:05 AM,-23.8,-9999,N/A,29.82,10.0,Calm,Calm,-,N/A,,Clear,0,2012-12-19 09:05:00
2:25 AM,-25.6,-9999,N/A,29.82,10.0,South,3.5,-,N/A,,Mostly Cloudy,170,2012-12-19 09:25:00
2:45 AM,-25.6,-9999,N/A,29.83,10.0,Calm,Calm,-,N/A,,Overcast,0,2012-12-19 09:45:00
3:05 AM,-25.6,-9999,N/A,29.82,10.0,Calm,Calm,-,N/A,,Scattered Clouds,0,2012-12-19 10:05:00
3:25 AM,-25.6,-9999,N/A,29.83,10.0,Calm,Calm,-,N/A,,Scattered Clouds,0,2012-12-19 10:25:00
3:45 AM,-27.4,-9999,N/A,29.84,10.0,Calm,Calm,-,N/A,,Mostly Cloudy,0,2012-12-19 10:45:00
4:05 AM,-27.4,-9999,N/A,29.84,10.0,Calm,Calm,-,N/A,,Overcast,0,2012-12-19 11:05:00
4:25 AM,-27.4,-9999,N/A,29.85,10.0,Calm,Calm,-,N/A,,Mostly Cloudy,0,2012-12-19 11:25:00
4:45 AM,-27.4,-9999,N/A,29.85,10.0,Calm,Calm,-,N/A,,Partly Cloudy,0,2012-12-19 11:45:00
5:05 AM,-27.4,-9999,N/A,29.86,10.0,Calm,Calm,-,N/A,,Partly Cloudy,0,2012-12-19 12:05:00
5:25 AM,-29.2,-9999,N/A,29.87,10.0,SW,5.8,-,N/A,,Mostly Cloudy,220,2012-12-19 12:25:00
5:45 AM,-29.2,-9999,N/A,29.88,10.0,West,3.5,-,N/A,,Overcast,270,2012-12-19 12:45:00
6:05 AM,-27.4,-9999,N/A,29.89,10.0,SSW,3.5,-,N/A,,Overcast,200,2012-12-19 13:05:00
6:25 AM,-25.6,-9999,N/A,29.91,1.2,Calm,Calm,-,N/A,,Overcast,0,2012-12-19 13:25:00
6:45 AM,-23.8,-9999,N/A,29.92,1.0,Calm,Calm,-,N/A,,Overcast,0,2012-12-19 13:45:00
7:05 AM,-22.0,-9999,N/A,29.93,0.8,Calm,Calm,-,N/A,,Overcast,0,2012-12-19 14:05:00
7:25 AM,-20.2,-9999,N/A,29.94,0.5,Calm,Calm,-,N/A,Fog,Light Freezing Fog,0,2012-12-19 14:25:00
7:45 AM,-18.4,-9999,N/A,29.94,0.2,Calm,Calm,-,N/A,Fog,Light Freezing Fog,0,2012-12-19 14:45:00
8:05 AM,-16.6,-9999,N/A,29.95,0.2,Calm,Calm,-,N/A,Fog,Light Freezing Fog,0,2012-12-19 15:05:00
8:25 AM,-14.8,-9999,N/A,29.97,2.5,Calm,Calm,-,N/A,,Overcast,0,2012-12-19 15:25:00
8:45 AM,-13.0,-9999,N/A,29.97,0.2,Calm,Calm,-,N/A,Fog,Light Freezing Fog,0,2012-12-19 15:45:00
9:05 AM,-13.0,-9999,N/A,29.98,3.0,Calm,Calm,-,N/A,,Overcast,0,2012-12-19 16:05:00
9:25 AM,-11.2,-9999,N/A,29.99,0.5,Calm,Calm,-,N/A,Fog,Light Freezing Fog,0,2012-12-19 16:25:00
9:45 AM,-7.6,-9999,N/A,30.00,0.8,Calm,Calm,-,N/A,,Overcast,0,2012-12-19 16:45:00
10:05 AM,-7.6,-9999,N/A,30.01,1.0,Calm,Calm,-,N/A,,Overcast,0,2012-12-19 17:05:00
10:25 AM,-5.8,-9999,N/A,30.01,8.0,Calm,Calm,-,N/A,,Overcast,0,2012-12-19 17:25:00
10:45 AM,-5.8,-9999,N/A,30.02,8.0,Calm,Calm,-,N/A,,Overcast,0,2012-12-19 17:45:00
11:05 AM,-4.0,-9999,N/A,30.02,7.0,Calm,Calm,-,N/A,,Overcast,0,2012-12-19 18:05:00
11:25 AM,-2.2,-9999,N/A,30.02,10.0,Calm,Calm,-,N/A,,Overcast,0,2012-12-19 18:25:00
11:45 AM,-2.2,-9999,N/A,30.02,8.0,Calm,Calm,-,N/A,,Overcast,0,2012-12-19 18:45:00
12:05 PM,-0.4,-9999,N/A,30.02,8.0,Calm,Calm,-,N/A,,Overcast,0,2012-12-19 19:05:00
12:25 PM,-0.4,-9999,N/A,30.02,10.0,Calm,Calm,-,N/A,,Overcast,0,2012-12-19 19:25:00
12:45 PM,1.4,-9999,N/A,30.01,10.0,Calm,Calm,-,N/A,,Overcast,0,2012-12-19 19:45:00
1:05 PM,3.2,-9999,N/A,30.02,7.0,Calm,Calm,-,N/A,Snow,Light Snow,0,2012-12-19 20:05:00
1:25 PM,6.8,-9999,N/A,30.02,5.0,SW,8.1,-,N/A,,Haze,220,2012-12-19 20:25:00
1:45 PM,6.8,-9999,N/A,30.02,8.0,SW,11.5,16.1,N/A,,Overcast,230,2012-12-19 20:45:00
2:05 PM,6.8,-9999,N/A,30.03,7.0,SW,8.1,-,N/A,Snow,Light Snow,230,2012-12-19 21:05:00
2:25 PM,6.8,-9999,N/A,30.03,10.0,SSW,12.7,19.6,N/A,,Overcast,210,2012-12-19 21:25:00
2:45 PM,6.8,-9999,N/A,30.03,10.0,SW,10.4,-,N/A,,Overcast,220,2012-12-19 21:45:00
3:05 PM,6.8,-9999,N/A,30.04,9.0,SW,10.4,17.3,N/A,,Overcast,220,2012-12-19 22:05:00
3:25 PM,6.8,-9999,N/A,30.05,8.0,SW,13.8,17.3,N/A,,Overcast,230,2012-12-19 22:25:00
3:45 PM,6.8,-9999,N/A,30.06,9.0,SW,5.8,-,N/A,,Overcast,220,2012-12-19 22:45:00
4:05 PM,8.6,-9999,N/A,30.06,7.0,SW,5.8,-,N/A,,Overcast,230,2012-12-19 23:05:00
4:25 PM,6.8,-9999,N/A,30.07,8.0,SSW,11.5,18.4,N/A,,Overcast,210,2012-12-19 23:25:00
4:45 PM,6.8,-9999,N/A,30.08,8.0,SSW,6.9,-,N/A,,Mostly Cloudy,200,2012-12-19 23:45:00
5:05 PM,6.8,-9999,N/A,30.09,10.0,SSW,11.5,16.1,N/A,,Mostly Cloudy,210,2012-12-20 00:05:00
5:25 PM,6.8,-9999,N/A,30.10,10.0,SW,4.6,-,N/A,,Mostly Cloudy,220,2012-12-20 00:25:00
5:45 PM,6.8,-9999,N/A,30.12,10.0,WSW,4.6,-,N/A,,Mostly Cloudy,250,2012-12-20 00:45:00
6:05 PM,6.8,-9999,N/A,30.12,10.0,SW,8.1,-,N/A,,Scattered Clouds,220,2012-12-20 01:05:00
6:25 PM,6.8,-9999,N/A,30.12,10.0,SW,8.1,-,N/A,Snow,Light Snow,220,2012-12-20 01:25:00
6:45 PM,6.8,-9999,N/A,30.13,9.0,SSW,5.8,-,N/A,,Overcast,200,2012-12-20 01:45:00
7:05 PM,8.6,-9999,N/A,30.14,10.0,SW,5.8,-,N/A,,Overcast,220,2012-12-20 02:05:00
7:25 PM,8.6,-9999,N/A,30.15,8.0,SSW,4.6,-,N/A,Snow,Light Snow,210,2012-12-20 02:25:00
7:45 PM,8.6,-9999,N/A,30.15,9.0,SSW,3.5,-,N/A,,Overcast,200,2012-12-20 02:45:00
8:05 PM,8.6,-9999,N/A,30.16,8.0,SW,3.5,-,N/A,Snow,Light Snow,220,2012-12-20 03:05:00
8:25 PM,8.6,-9999,N/A,30.17,6.0,South,5.8,-,N/A,Snow,Light Snow,190,2012-12-20 03:25:00
8:45 PM,8.6,-9999,N/A,30.18,8.0,SSW,5.8,-,N/A,,Overcast,200,2012-12-20 03:45:00
9:05 PM,8.6,-9999,N/A,30.18,10.0,South,8.1,-,N/A,,Overcast,190,2012-12-20 04:05:00
9:25 PM,8.6,-9999,N/A,30.18,10.0,SSW,6.9,-,N/A,,Overcast,210,2012-12-20 04:25:00
9:45 PM,10.4,-9999,N/A,30.19,10.0,SSW,6.9,-,N/A,,Overcast,210,2012-12-20 04:45:00
10:05 PM,10.4,-9999,N/A,30.18,10.0,SW,9.2,-,N/A,,Overcast,220,2012-12-20 05:05:00
10:25 PM,10.4,-9999,N/A,30.19,10.0,SW,10.4,18.4,N/A,,Overcast,220,2012-12-20 05:25:00
10:45 PM,10.4,-9999,N/A,30.19,9.0,SSW,13.8,19.6,N/A,,Overcast,210,2012-12-20 05:45:00
11:05 PM,10.4,-9999,N/A,30.20,9.0,SW,10.4,16.1,N/A,Snow,Light Snow,220,2012-12-20 06:05:00
11:45 PM,10.4,-9999,N/A,30.21,10.0,SW,10.4,-,N/A,,Overcast,230,2012-12-20 06:45:00